M I D A S
Marine Information and Data Acquisition System
Tripno 1580 of the Zeeleeuw from 2008-10-03 05:58:13 to 2008-10-03 10:57:45
Back to CruiseResearch ActivitiesStationsMapUnderway DataData graphs

EquipmentUnitsComment
TimeDGPSUTC
LatitudeDGPSDM.mWGS84
LongitudeDGPSDM.mWGS84
HeadingGyrodeg 
SOGDGPSknotsSpeed over ground
COGDGPSdegCourse over ground
DepthEcho soundermeters200 kHz
Missing or incorrect values are displayed as -999
Navigation data collected by the RV Zeeleeuw from 2008-10-03 05:58:13 to 2008-10-03 10:57:45
                                                                                    Next 1000 lines
Time Latitude Longitude Heading SOG COG Depth
2008-10-03 05:58:30 51°13.622 2°56.049 124.7   335 -999
2008-10-03 05:58:40 51°13.623 2°56.049 124.7   335 -999
2008-10-03 05:58:50 51°13.623 2°56.05 124.7   335 -999
2008-10-03 05:59:00 51°13.622 2°56.05 123.7 0.1 205 -999
2008-10-03 05:59:10 51°13.622 2°56.049 123.7 0.1 205 -999
2008-10-03 05:59:20 51°13.622 2°56.049 123.7 0.1 205 -999
2008-10-03 05:59:30 51°13.621 2°56.049 123.7 0.1 205 -999
2008-10-03 05:59:40 51°13.621 2°56.049 123.7 0.1 205 -999
2008-10-03 05:59:50 51°13.62 2°56.049 123.7 0.1 205 -999
2008-10-03 06:00:00 51°13.621 2°56.049 108.7 0.1 242 -999
2008-10-03 06:00:10 51°13.621 2°56.047 108.7 0.1 242 -999
2008-10-03 06:00:20 51°13.621 2°56.042 108.7 0.1 242 -999
2008-10-03 06:00:30 51°13.623 2°56.034 108.7 0.1 242 -999
2008-10-03 06:00:40 51°13.625 2°56.022 108.7 0.1 242 -999
2008-10-03 06:00:50 51°13.629 2°56.007 108.7 0.1 242 -999
2008-10-03 06:01:00 51°13.632 2°55.991 109.5 4 291 -999
2008-10-03 06:01:10 51°13.636 2°55.976 109.5 4 291 -999
2008-10-03 06:01:20 51°13.641 2°55.955 109.5 4 291 -999
2008-10-03 06:01:30 51°13.646 2°55.936 109.5 4 291 -999
2008-10-03 06:01:40 51°13.652 2°55.916 109.5 4 291 -999
2008-10-03 06:01:50 51°13.658 2°55.896 109.5 4 291 -999
2008-10-03 06:02:00 51°13.663 2°55.878 116.4 4.59 297 -999
2008-10-03 06:02:10 51°13.669 2°55.861 116.4 4.59 297 -999
2008-10-03 06:02:20 51°13.674 2°55.845 116.4 4.59 297 -999
2008-10-03 06:02:30 51°13.679 2°55.829 116.4 4.59 297 -999
2008-10-03 06:02:40 51°13.683 2°55.814 116.4 4.59 297 -999
2008-10-03 06:02:50 51°13.687 2°55.801 116.4 4.59 297 -999
2008-10-03 06:03:00 51°13.691 2°55.786 109 3.29 292 -999
2008-10-03 06:03:10 51°13.694 2°55.773 109 3.29 292 -999
2008-10-03 06:03:20 51°13.696 2°55.763 109 3.29 292 -999
2008-10-03 06:03:30 51°13.698 2°55.759 109 3.29 292 -999
2008-10-03 06:03:40 51°13.699 2°55.761 109 3.29 292 -999
2008-10-03 06:03:50 51°13.7 2°55.764 109 3.29 292 -999
2008-10-03 06:04:00 51°13.701 2°55.764 70 0.29 9 -999
2008-10-03 06:04:10 51°13.701 2°55.762 70 0.29 9 -999
2008-10-03 06:04:20 51°13.7 2°55.758 70 0.29 9 -999
2008-10-03 06:04:30 51°13.699 2°55.754 70 0.29 9 -999
2008-10-03 06:04:40 51°13.698 2°55.75 70 0.29 9 -999
2008-10-03 06:04:50 51°13.697 2°55.747 70 0.29 9 -999
2008-10-03 06:05:00 51°13.698 2°55.746 46 0.29 284 -999
2008-10-03 06:05:10 51°13.698 2°55.745 46 0.29 284 -999
2008-10-03 06:05:20 51°13.7 2°55.745 46 0.29 284 -999
2008-10-03 06:05:30 51°13.702 2°55.745 46 0.29 284 -999
2008-10-03 06:05:40 51°13.707 2°55.745 46 0.29 284 -999
2008-10-03 06:05:50 51°13.714 2°55.744 46 0.29 284 -999
2008-10-03 06:06:00 51°13.722 2°55.74 353.3 3.79 339 -999
2008-10-03 06:06:10 51°13.734 2°55.731 353.3 3.79 339 -999
2008-10-03 06:06:20 51°13.748 2°55.718 353.3 3.79 339 -999
2008-10-03 06:06:30 51°13.763 2°55.703 353.3 3.79 339 -999
2008-10-03 06:06:40 51°13.779 2°55.687 353.3 3.79 339 -999
2008-10-03 06:06:50 51°13.797 2°55.671 353.3 3.79 339 -999
2008-10-03 06:07:00 51°13.816 2°55.655 332.3 7.9 333 -999
2008-10-03 06:07:10 51°13.836 2°55.639 332.3 7.9 333 -999
2008-10-03 06:07:20 51°13.856 2°55.623 332.3 7.9 333 -999
2008-10-03 06:07:30 51°13.877 2°55.606 332.3 7.9 333 -999
2008-10-03 06:07:40 51°13.898 2°55.59 332.3 7.9 333 -999
2008-10-03 06:07:50 51°13.92 2°55.574 332.3 7.9 333 -999
2008-10-03 06:08:00 51°13.941 2°55.556 334.3 8.69 331 -999
2008-10-03 06:08:10 51°13.962 2°55.538 334.3 8.69 331 -999
2008-10-03 06:08:20 51°13.984 2°55.52 334.3 8.69 331 -999
2008-10-03 06:08:30 51°14.007 2°55.502 334.3 8.69 331 -999
2008-10-03 06:08:40 51°14.03 2°55.483 334.3 8.69 331 -999
2008-10-03 06:08:50 51°14.054 2°55.464 334.3 8.69 331 -999
2008-10-03 06:09:00 51°14.077 2°55.444 334.1 9.8 333 -999
2008-10-03 06:09:10 51°14.102 2°55.424 334.1 9.8 333 -999
2008-10-03 06:09:20 51°14.126 2°55.404 334.1 9.8 333 -999
2008-10-03 06:09:30 51°14.151 2°55.381 334.1 9.8 333 -999
2008-10-03 06:09:40 51°14.176 2°55.356 334.1 9.8 333 -999
2008-10-03 06:09:50 51°14.2 2°55.331 334.1 9.8 333 -999
2008-10-03 06:10:00 51°14.224 2°55.301 326.1 11 321 -999
2008-10-03 06:10:10 51°14.248 2°55.268 326.1 11 321 -999
2008-10-03 06:10:20 51°14.268 2°55.236 326.1 11 321 -999
2008-10-03 06:10:30 51°14.292 2°55.195 326.1 11 321 -999
2008-10-03 06:10:40 51°14.313 2°55.154 326.1 11 321 -999
2008-10-03 06:10:50 51°14.333 2°55.112 326.1 11 321 -999
2008-10-03 06:11:00 51°14.353 2°55.069 307.5 12.19 306 -999
2008-10-03 06:11:10 51°14.375 2°55.027 307.5 12.19 306 -999
2008-10-03 06:11:20 51°14.396 2°54.986 307.5 12.19 306 -999
2008-10-03 06:11:30 51°14.418 2°54.946 307.5 12.19 306 -999
2008-10-03 06:11:40 51°14.441 2°54.907 307.5 12.19 306 -999
2008-10-03 06:11:50 51°14.466 2°54.872 307.5 12.19 306 -999
2008-10-03 06:12:00 51°14.491 2°54.838 322.8 12 320 -999
2008-10-03 06:12:10 51°14.517 2°54.805 322.8 12 320 -999
2008-10-03 06:12:20 51°14.545 2°54.776 322.8 12 320 -999
2008-10-03 06:12:30 51°14.574 2°54.749 322.8 12 320 -999
2008-10-03 06:12:40 51°14.603 2°54.722 322.8 12 320 -999
2008-10-03 06:12:50 51°14.632 2°54.696 322.8 12 320 -999
2008-10-03 06:13:00 51°14.661 2°54.669 333.1 12 331 -999
2008-10-03 06:13:10 51°14.69 2°54.644 333.1 12 331 -999
2008-10-03 06:13:20 51°14.72 2°54.617 333.1 12 331 -999
2008-10-03 06:13:30 51°14.749 2°54.592 333.1 12 331 -999
2008-10-03 06:13:40 51°14.779 2°54.566 333.1 12 331 -999
2008-10-03 06:13:50 51°14.808 2°54.541 333.1 12 331 -999
2008-10-03 06:14:00 51°14.837 2°54.515 334.1 11.9 331 -999
2008-10-03 06:14:10 51°14.866 2°54.489 334.1 11.9 331 -999
2008-10-03 06:14:20 51°14.895 2°54.462 334.1 11.9 331 -999
2008-10-03 06:14:30 51°14.924 2°54.437 334.1 11.9 331 -999
2008-10-03 06:14:40 51°14.954 2°54.411 334.1 11.9 331 -999
2008-10-03 06:14:50 51°14.983 2°54.386 334.1 11.9 331 -999
2008-10-03 06:15:00 51°15.015 2°54.357 333.3 12 330 -999
2008-10-03 06:15:10 51°15.041 2°54.335 333.3 12 330 -999
2008-10-03 06:15:20 51°15.07 2°54.31 333.3 12 330 -999
2008-10-03 06:15:30 51°15.1 2°54.284 333.3 12 330 -999
2008-10-03 06:15:40 51°15.132 2°54.257 333.3 12 330 -999
2008-10-03 06:15:50 51°15.158 2°54.233 333.3 12 330 -999
2008-10-03 06:16:00 51°15.187 2°54.206 333.1 12.19 331 -999
2008-10-03 06:16:10 51°15.216 2°54.181 333.1 12.19 331 -999
2008-10-03 06:16:20 51°15.245 2°54.155 333.1 12.19 331 -999
2008-10-03 06:16:30 51°15.275 2°54.131 333.1 12.19 331 -999
2008-10-03 06:16:40 51°15.303 2°54.105 333.1 12.19 331 -999
2008-10-03 06:16:50 51°15.331 2°54.078 333.1 12.19 331 -999
2008-10-03 06:17:00 51°15.36 2°54.05 331.8 12.09 329 -999
2008-10-03 06:17:10 51°15.389 2°54.024 331.8 12.09 329 -999
2008-10-03 06:17:20 51°15.418 2°53.998 331.8 12.09 329 -999
2008-10-03 06:17:30 51°15.447 2°53.972 331.8 12.09 329 -999
2008-10-03 06:17:40 51°15.475 2°53.945 331.8 12.09 329 -999
2008-10-03 06:17:50 51°15.504 2°53.919 331.8 12.09 329 -999
2008-10-03 06:18:00 51°15.533 2°53.893 331.6 12 330 -999
2008-10-03 06:18:10 51°15.565 2°53.863 331.6 12 330 -999
2008-10-03 06:18:20 51°15.594 2°53.837 331.6 12 330 -999
2008-10-03 06:18:30 51°15.621 2°53.813 331.6 12 330 -999
2008-10-03 06:18:40 51°15.653 2°53.784 331.6 12 330 -999
2008-10-03 06:18:50 51°15.68 2°53.761 331.6 12 330 -999
2008-10-03 06:19:00 51°15.712 2°53.731 332.3 12.19 331 -999
2008-10-03 06:19:10 51°15.738 2°53.707 332.3 12.19 331 -999
2008-10-03 06:19:20 51°15.767 2°53.68 332.3 12.19 331 -999
2008-10-03 06:19:30 51°15.797 2°53.655 332.3 12.19 331 -999
2008-10-03 06:19:40 51°15.829 2°53.629 332.3 12.19 331 -999
2008-10-03 06:19:50 51°15.859 2°53.605 332.3 12.19 331 -999
2008-10-03 06:20:00 51°15.886 2°53.584 335.8 12 334 -999
2008-10-03 06:20:10 51°15.915 2°53.561 335.8 12 334 -999
2008-10-03 06:20:20 51°15.949 2°53.536 335.8 12 334 -999
2008-10-03 06:20:30 51°15.979 2°53.512 335.8 12 334 -999
2008-10-03 06:20:40 51°16.006 2°53.491 335.8 12 334 -999
2008-10-03 06:20:50 51°16.039 2°53.465 335.8 12 334 -999
2008-10-03 06:21:00 51°16.069 2°53.441 335.6 12.09 334 -999
2008-10-03 06:21:10 51°16.098 2°53.418 335.6 12.09 334 -999
2008-10-03 06:21:20 51°16.128 2°53.395 335.6 12.09 334 -999
2008-10-03 06:21:30 51°16.155 2°53.374 335.6 12.09 334 -999
2008-10-03 06:21:40 51°16.188 2°53.347 335.6 12.09 334 -999
2008-10-03 06:21:50 51°16.218 2°53.324 335.6 12.09 334 -999
2008-10-03 06:22:00 51°16.248 2°53.3 336 12.09 334 -999
2008-10-03 06:22:10 51°16.277 2°53.277 336 12.09 334 -999
2008-10-03 06:22:20 51°16.308 2°53.253 336 12.09 334 -999
2008-10-03 06:22:30 51°16.334 2°53.231 336 12.09 334 -999
2008-10-03 06:22:40 51°16.368 2°53.204 336 12.09 334 -999
2008-10-03 06:22:50 51°16.398 2°53.181 336 12.09 334 -999
2008-10-03 06:23:00 51°16.429 2°53.159 337.6 12.19 335 -999
2008-10-03 06:23:10 51°16.457 2°53.138 337.6 12.19 335 -999
2008-10-03 06:23:20 51°16.487 2°53.116 337.6 12.19 335 -999
2008-10-03 06:23:30 51°16.521 2°53.091 337.6 12.19 335 -999
2008-10-03 06:23:40 51°16.552 2°53.068 337.6 12.19 335 -999
2008-10-03 06:23:50 51°16.579 2°53.047 337.6 12.19 335 -999
2008-10-03 06:24:00 51°16.61 2°53.024 337.6 12.09 334 -999
2008-10-03 06:24:10 51°16.641 2°53.001 337.6 12.09 334 -999
2008-10-03 06:24:20 51°16.674 2°52.977 337.6 12.09 334 -999
2008-10-03 06:24:30 51°16.704 2°52.953 337.6 12.09 334 -999
2008-10-03 06:24:40 51°16.731 2°52.933 337.6 12.09 334 -999
2008-10-03 06:24:50 51°16.762 2°52.91 337.6 12.09 334 -999
2008-10-03 06:25:00 51°16.795 2°52.886 337 12 334 -999
2008-10-03 06:25:10 51°16.825 2°52.863 337 12 334 -999
2008-10-03 06:25:20 51°16.855 2°52.842 337 12 334 -999
2008-10-03 06:25:30 51°16.885 2°52.82 337 12 334 -999
2008-10-03 06:25:40 51°16.913 2°52.799 337 12 334 -999
2008-10-03 06:25:50 51°16.946 2°52.773 337 12 334 -999
2008-10-03 06:26:00 51°16.977 2°52.749 335.8 12.19 333 -999
2008-10-03 06:26:10 51°17.007 2°52.725 335.8 12.19 333 -999
2008-10-03 06:26:20 51°17.038 2°52.701 335.8 12.19 333 -999
2008-10-03 06:26:30 51°17.066 2°52.683 335.8 12.19 333 -999
2008-10-03 06:26:40 51°17.101 2°52.666 335.8 12.19 333 -999
2008-10-03 06:26:50 51°17.133 2°52.654 335.8 12.19 333 -999
2008-10-03 06:27:00 51°17.166 2°52.651 354.1 12 357 -999
2008-10-03 06:27:10 51°17.2 2°52.654 354.1 12 357 -999
2008-10-03 06:27:20 51°17.229 2°52.664 354.1 12 357 -999
2008-10-03 06:27:30 51°17.263 2°52.681 354.1 12 357 -999
2008-10-03 06:27:40 51°17.293 2°52.701 354.1 12 357 -999
2008-10-03 06:27:50 51°17.323 2°52.725 354.1 12 357 -999
2008-10-03 06:28:00 51°17.348 2°52.748 28.3 11.8 35 -999
2008-10-03 06:28:10 51°17.378 2°52.779 28.3 11.8 35 -999
2008-10-03 06:28:20 51°17.403 2°52.812 28.3 11.8 35 -999
2008-10-03 06:28:30 51°17.425 2°52.844 28.3 11.8 35 -999
2008-10-03 06:28:40 51°17.449 2°52.88 28.3 11.8 35 -999
2008-10-03 06:28:50 51°17.473 2°52.923 28.3 11.8 35 -999
2008-10-03 06:29:00 51°17.494 2°52.962 48.6 11.8 52 -999
2008-10-03 06:29:10 51°17.515 2°52.995 48.6 11.8 52 -999
2008-10-03 06:29:20 51°17.538 2°53.034 48.6 11.8 52 -999
2008-10-03 06:29:30 51°17.56 2°53.072 48.6 11.8 52 -999
2008-10-03 06:29:40 51°17.585 2°53.115 48.6 11.8 52 -999
2008-10-03 06:29:50 51°17.608 2°53.152 48.6 11.8 52 -999
2008-10-03 06:30:00 51°17.629 2°53.184 45.7 11.69 48 -999
2008-10-03 06:30:10 51°17.654 2°53.218 45.7 11.69 48 -999
2008-10-03 06:30:20 51°17.68 2°53.252 45.7 11.69 48 -999
2008-10-03 06:30:30 51°17.707 2°53.289 45.7 11.69 48 -999
2008-10-03 06:30:40 51°17.733 2°53.323 45.7 11.69 48 -999
2008-10-03 06:30:50 51°17.758 2°53.357 45.7 11.69 48 -999
2008-10-03 06:31:00 51°17.784 2°53.388 39.6 11.59 43 -999
2008-10-03 06:31:10 51°17.809 2°53.42 39.6 11.59 43 -999
2008-10-03 06:31:20 51°17.836 2°53.45 39.6 11.59 43 -999
2008-10-03 06:31:30 51°17.858 2°53.479 39.6 11.59 43 -999
2008-10-03 06:31:40 51°17.883 2°53.512 39.6 11.59 43 -999
2008-10-03 06:31:50 51°17.91 2°53.547 39.6 11.59 43 -999
2008-10-03 06:32:00 51°17.936 2°53.578 38.3 11.59 42 -999
2008-10-03 06:32:10 51°17.963 2°53.609 38.3 11.59 42 -999
2008-10-03 06:32:20 51°17.989 2°53.641 38.3 11.59 42 -999
2008-10-03 06:32:30 51°18.012 2°53.67 38.3 11.59 42 -999
2008-10-03 06:32:40 51°18.04 2°53.706 38.3 11.59 42 -999
2008-10-03 06:32:50 51°18.066 2°53.737 38.3 11.59 42 -999
2008-10-03 06:33:00 51°18.091 2°53.765 39.1 12.09 34 -999
2008-10-03 06:33:10 51°18.117 2°53.797 39.1 12.09 34 -999
2008-10-03 06:33:20 51°18.147 2°53.831 39.1 12.09 34 -999
2008-10-03 06:33:30 51°18.174 2°53.861 39.1 12.09 34 -999
2008-10-03 06:33:40 51°18.201 2°53.891 39.1 12.09 34 -999
2008-10-03 06:33:50 51°18.224 2°53.919 39.1 12.09 34 -999
2008-10-03 06:34:00 51°18.252 2°53.954 37.7 11.69 37 -999
2008-10-03 06:34:10 51°18.279 2°53.984 37.7 11.69 37 -999
2008-10-03 06:34:20 51°18.305 2°54.015 37.7 11.69 37 -999
2008-10-03 06:34:30 51°18.329 2°54.043 37.7 11.69 37 -999
2008-10-03 06:34:40 51°18.357 2°54.077 37.7 11.69 37 -999
2008-10-03 06:34:50 51°18.38 2°54.106 37.7 11.69 37 -999
2008-10-03 06:35:00 51°18.405 2°54.139 41.3 11.69 39 -999
2008-10-03 06:35:10 51°18.43 2°54.172 41.3 11.69 39 -999
2008-10-03 06:35:20 51°18.457 2°54.212 41.3 11.69 39 -999
2008-10-03 06:35:30 51°18.477 2°54.245 41.3 11.69 39 -999
2008-10-03 06:35:40 51°18.502 2°54.287 41.3 11.69 39 -999
2008-10-03 06:35:50 51°18.525 2°54.324 41.3 11.69 39 -999
2008-10-03 06:36:00 51°18.547 2°54.362 50.2 12 44 -999
2008-10-03 06:36:10 51°18.569 2°54.401 50.2 12 44 -999
2008-10-03 06:36:20 51°18.589 2°54.442 50.2 12 44 -999
2008-10-03 06:36:30 51°18.607 2°54.479 50.2 12 44 -999
2008-10-03 06:36:40 51°18.629 2°54.524 50.2 12 44 -999
2008-10-03 06:36:50 51°18.649 2°54.564 50.2 12 44 -999
2008-10-03 06:37:00 51°18.669 2°54.605 55.1 11.69 49 -999
2008-10-03 06:37:10 51°18.689 2°54.645 55.1 11.69 49 -999
2008-10-03 06:37:20 51°18.71 2°54.684 55.1 11.69 49 -999
2008-10-03 06:37:30 51°18.729 2°54.718 55.1 11.69 49 -999
2008-10-03 06:37:40 51°18.752 2°54.762 55.1 11.69 49 -999
2008-10-03 06:37:50 51°18.772 2°54.801 55.1 11.69 49 -999
2008-10-03 06:38:00 51°18.792 2°54.84 51.6 11.59 52 -999
2008-10-03 06:38:10 51°18.813 2°54.88 51.6 11.59 52 -999
2008-10-03 06:38:20 51°18.833 2°54.92 51.6 11.59 52 -999
2008-10-03 06:38:30 51°18.852 2°54.956 51.6 11.59 52 -999
2008-10-03 06:38:40 51°18.874 2°55.001 51.6 11.59 52 -999
2008-10-03 06:38:50 51°18.895 2°55.04 51.6 11.59 52 -999
2008-10-03 06:39:00 51°18.916 2°55.08 53 11.59 48 -999
2008-10-03 06:39:10 51°18.936 2°55.119 53 11.59 48 -999
2008-10-03 06:39:20 51°18.954 2°55.156 53 11.59 48 -999
2008-10-03 06:39:30 51°18.977 2°55.199 53 11.59 48 -999
2008-10-03 06:39:40 51°18.998 2°55.238 53 11.59 48 -999
2008-10-03 06:39:50 51°19.02 2°55.276 53 11.59 48 -999
2008-10-03 06:40:00 51°19.041 2°55.314 51.1 11.59 50 -999
2008-10-03 06:40:10 51°19.063 2°55.353 51.1 11.59 50 -999
2008-10-03 06:40:20 51°19.083 2°55.386 51.1 11.59 50 -999
2008-10-03 06:40:30 51°19.108 2°55.427 51.1 11.59 50 -999
2008-10-03 06:40:40 51°19.128 2°55.467 51.1 11.59 50 -999
2008-10-03 06:40:50 51°19.151 2°55.505 51.1 11.59 50 -999
2008-10-03 06:41:00 51°19.17 2°55.539 51.2 11.59 47 -999
2008-10-03 06:41:10 51°19.193 2°55.582 51.2 11.59 47 -999
2008-10-03 06:41:20 51°19.215 2°55.621 51.2 11.59 47 -999
2008-10-03 06:41:30 51°19.236 2°55.66 51.2 11.59 47 -999
2008-10-03 06:41:40 51°19.257 2°55.7 51.2 11.59 47 -999
2008-10-03 06:41:50 51°19.277 2°55.74 51.2 11.59 47 -999
2008-10-03 06:42:00 51°19.299 2°55.778 50.2 11.69 51 -999
2008-10-03 06:42:10 51°19.321 2°55.816 50.2 11.69 51 -999
2008-10-03 06:42:20 51°19.343 2°55.854 50.2 11.69 51 -999
2008-10-03 06:42:30 51°19.365 2°55.893 50.2 11.69 51 -999
2008-10-03 06:42:40 51°19.386 2°55.931 50.2 11.69 51 -999
2008-10-03 06:42:50 51°19.408 2°55.97 50.2 11.69 51 -999
2008-10-03 06:43:00 51°19.429 2°56.009 52.6 11.59 47 -999
2008-10-03 06:43:10 51°19.449 2°56.047 52.6 11.59 47 -999
2008-10-03 06:43:20 51°19.471 2°56.084 52.6 11.59 47 -999
2008-10-03 06:43:30 51°19.493 2°56.122 52.6 11.59 47 -999
2008-10-03 06:43:40 51°19.516 2°56.158 52.6 11.59 47 -999
2008-10-03 06:43:50 51°19.538 2°56.195 52.6 11.59 47 -999
2008-10-03 06:44:00 51°19.56 2°56.231 50 11.59 42 -999
2008-10-03 06:44:10 51°19.582 2°56.269 50 11.59 42 -999
2008-10-03 06:44:20 51°19.604 2°56.308 50 11.59 42 -999
2008-10-03 06:44:30 51°19.626 2°56.345 50 11.59 42 -999
2008-10-03 06:44:40 51°19.647 2°56.384 50 11.59 42 -999
2008-10-03 06:44:50 51°19.668 2°56.422 50 11.59 42 -999
2008-10-03 06:45:00 51°19.69 2°56.459 51.3 11.5 47 -999
2008-10-03 06:45:10 51°19.711 2°56.497 51.3 11.5 47 -999
2008-10-03 06:45:20 51°19.733 2°56.535 51.3 11.5 47 -999
2008-10-03 06:45:30 51°19.754 2°56.573 51.3 11.5 47 -999
2008-10-03 06:45:40 51°19.775 2°56.612 51.3 11.5 47 -999
2008-10-03 06:45:50 51°19.797 2°56.65 51.3 11.5 47 -999
2008-10-03 06:46:00 51°19.818 2°56.688 51.7 11.4 47 -999
2008-10-03 06:46:10 51°19.839 2°56.726 51.7 11.4 47 -999
2008-10-03 06:46:20 51°19.861 2°56.763 51.7 11.4 47 -999
2008-10-03 06:46:30 51°19.881 2°56.802 51.7 11.4 47 -999
2008-10-03 06:46:40 51°19.902 2°56.841 51.7 11.4 47 -999
2008-10-03 06:46:50 51°19.923 2°56.879 51.7 11.4 47 -999
2008-10-03 06:47:00 51°19.945 2°56.916 50.7 11.5 46 -999
2008-10-03 06:47:10 51°19.967 2°56.955 50.7 11.5 46 -999
2008-10-03 06:47:20 51°19.989 2°56.993 50.7 11.5 46 -999
2008-10-03 06:47:30 51°20.01 2°57.03 50.7 11.5 46 -999
2008-10-03 06:47:40 51°20.033 2°57.068 50.7 11.5 46 -999
2008-10-03 06:47:50 51°20.056 2°57.104 50.7 11.5 46 -999
2008-10-03 06:48:00 51°20.078 2°57.141 49.8 11.5 45 -999
2008-10-03 06:48:10 51°20.1 2°57.178 49.8 11.5 45 -999
2008-10-03 06:48:20 51°20.122 2°57.215 49.8 11.5 45 -999
2008-10-03 06:48:30 51°20.145 2°57.251 49.8 11.5 45 -999
2008-10-03 06:48:40 51°20.167 2°57.29 49.8 11.5 45 -999
2008-10-03 06:48:50 51°20.189 2°57.328 49.8 11.5 45 -999
2008-10-03 06:49:00 51°20.211 2°57.366 49.3 11.5 49 -999
2008-10-03 06:49:10 51°20.233 2°57.403 49.3 11.5 49 -999
2008-10-03 06:49:20 51°20.254 2°57.441 49.3 11.5 49 -999
2008-10-03 06:49:30 51°20.276 2°57.478 49.3 11.5 49 -999
2008-10-03 06:49:40 51°20.297 2°57.516 49.3 11.5 49 -999
2008-10-03 06:49:50 51°20.319 2°57.555 49.3 11.5 49 -999
2008-10-03 06:50:00 51°20.341 2°57.593 50 11.5 47 -999
2008-10-03 06:50:10 51°20.363 2°57.63 50 11.5 47 -999
2008-10-03 06:50:20 51°20.383 2°57.668 50 11.5 47 -999
2008-10-03 06:50:30 51°20.404 2°57.706 50 11.5 47 -999
2008-10-03 06:50:40 51°20.425 2°57.745 50 11.5 47 -999
2008-10-03 06:50:50 51°20.448 2°57.783 50 11.5 47 -999
2008-10-03 06:51:00 51°20.47 2°57.821 49.8 11.9 47 -999
2008-10-03 06:51:10 51°20.492 2°57.86 49.8 11.9 47 -999
2008-10-03 06:51:20 51°20.515 2°57.897 49.8 11.9 47 -999
2008-10-03 06:51:30 51°20.537 2°57.934 49.8 11.9 47 -999
2008-10-03 06:51:40 51°20.558 2°57.971 49.8 11.9 47 -999
2008-10-03 06:51:50 51°20.579 2°58.009 49.8 11.9 47 -999
2008-10-03 06:52:00 51°20.601 2°58.047 49.3 11.5 52 -999
2008-10-03 06:52:10 51°20.624 2°58.083 49.3 11.5 52 -999
2008-10-03 06:52:20 51°20.646 2°58.12 49.3 11.5 52 -999
2008-10-03 06:52:30 51°20.669 2°58.156 49.3 11.5 52 -999
2008-10-03 06:52:40 51°20.69 2°58.194 49.3 11.5 52 -999
2008-10-03 06:52:50 51°20.712 2°58.231 49.3 11.5 52 -999
2008-10-03 06:53:00 51°20.734 2°58.269 50.8 11.59 45 -999
2008-10-03 06:53:10 51°20.756 2°58.307 50.8 11.59 45 -999
2008-10-03 06:53:20 51°20.778 2°58.345 50.8 11.59 45 -999
2008-10-03 06:53:30 51°20.799 2°58.383 50.8 11.59 45 -999
2008-10-03 06:53:40 51°20.821 2°58.421 50.8 11.59 45 -999
2008-10-03 06:53:50 51°20.843 2°58.459 50.8 11.59 45 -999
2008-10-03 06:54:00 51°20.864 2°58.497 51.6 11.5 46 -999
2008-10-03 06:54:10 51°20.882 2°58.527 51.6 11.5 46 -999
2008-10-03 06:54:20 51°20.906 2°58.57 51.6 11.5 46 -999
2008-10-03 06:54:30 51°20.928 2°58.606 51.6 11.5 46 -999
2008-10-03 06:54:40 51°20.951 2°58.643 51.6 11.5 46 -999
2008-10-03 06:54:50 51°20.972 2°58.68 51.6 11.5 46 -999
2008-10-03 06:55:00 51°20.994 2°58.717 47.1 11.9 48 -999
2008-10-03 06:55:10 51°21.016 2°58.753 47.1 11.9 48 -999
2008-10-03 06:55:20 51°21.039 2°58.79 47.1 11.9 48 -999
2008-10-03 06:55:30 51°21.061 2°58.827 47.1 11.9 48 -999
2008-10-03 06:55:40 51°21.084 2°58.864 47.1 11.9 48 -999
2008-10-03 06:55:50 51°21.106 2°58.901 47.1 11.9 48 -999
2008-10-03 06:56:00 51°21.13 2°58.937 48.7 11.59 43 -999
2008-10-03 06:56:10 51°21.149 2°58.971 48.7 11.59 43 -999
2008-10-03 06:56:20 51°21.171 2°59.008 48.7 11.59 43 -999
2008-10-03 06:56:30 51°21.192 2°59.047 48.7 11.59 43 -999
2008-10-03 06:56:40 51°21.213 2°59.085 48.7 11.59 43 -999
2008-10-03 06:56:50 51°21.235 2°59.123 48.7 11.59 43 -999
2008-10-03 06:57:00 51°21.26 2°59.169 51.3 11.3 51 -999
2008-10-03 06:57:10 51°21.277 2°59.199 51.3 11.3 51 -999
2008-10-03 06:57:20 51°21.298 2°59.238 51.3 11.3 51 -999
2008-10-03 06:57:30 51°21.319 2°59.275 51.3 11.3 51 -999
2008-10-03 06:57:40 51°21.344 2°59.314 51.3 11.3 51 -999
2008-10-03 06:57:50 51°21.366 2°59.35 51.3 11.3 51 -999
2008-10-03 06:58:00 51°21.388 2°59.387 52.2 11.5 44 -999
2008-10-03 06:58:10 51°21.41 2°59.424 52.2 11.5 44 -999
2008-10-03 06:58:20 51°21.432 2°59.461 52.2 11.5 44 -999
2008-10-03 06:58:30 51°21.453 2°59.498 52.2 11.5 44 -999
2008-10-03 06:58:40 51°21.475 2°59.534 52.2 11.5 44 -999
2008-10-03 06:58:50 51°21.497 2°59.571 52.2 11.5 44 -999
2008-10-03 06:59:00 51°21.519 2°59.608 50.7 11.59 42 -999
2008-10-03 06:59:10 51°21.542 2°59.649 50.7 11.59 42 -999
2008-10-03 06:59:20 51°21.562 2°59.682 50.7 11.59 42 -999
2008-10-03 06:59:30 51°21.583 2°59.718 50.7 11.59 42 -999
2008-10-03 06:59:40 51°21.604 2°59.756 50.7 11.59 42 -999
2008-10-03 06:59:50 51°21.626 2°59.792 50.7 11.59 42 -999
2008-10-03 07:00:00 51°21.649 2°59.827 49.8 11.4 42 -999
2008-10-03 07:00:10 51°21.667 2°59.861 49.8 11.4 42 -999
2008-10-03 07:00:20 51°21.691 2°59.902 49.8 11.4 42 -999
2008-10-03 07:00:30 51°21.712 2°59.94 49.8 11.4 42 -999
2008-10-03 07:00:40 51°21.733 2°59.978 49.8 11.4 42 -999
2008-10-03 07:00:50 51°21.756 3°0.014 49.8 11.4 42 -999
2008-10-03 07:01:00 51°21.777 3°0.05 51 11.3 46 -999
2008-10-03 07:01:10 51°21.798 3°0.088 51 11.3 46 -999
2008-10-03 07:01:20 51°21.818 3°0.126 51 11.3 46 -999
2008-10-03 07:01:30 51°21.838 3°0.165 51 11.3 46 -999
2008-10-03 07:01:40 51°21.858 3°0.205 51 11.3 46 -999
2008-10-03 07:01:50 51°21.877 3°0.245 51 11.3 46 -999
2008-10-03 07:02:00 51°21.897 3°0.284 56.2 11.5 50 -999
2008-10-03 07:02:10 51°21.916 3°0.324 56.2 11.5 50 -999
2008-10-03 07:02:20 51°21.934 3°0.366 56.2 11.5 50 -999
2008-10-03 07:02:30 51°21.953 3°0.412 56.2 11.5 50 -999
2008-10-03 07:02:40 51°21.968 3°0.45 56.2 11.5 50 -999
2008-10-03 07:02:50 51°21.986 3°0.492 56.2 11.5 50 -999
2008-10-03 07:03:00 51°22.003 3°0.534 61.5 11.4 56 -999
2008-10-03 07:03:10 51°22.02 3°0.576 61.5 11.4 56 -999
2008-10-03 07:03:20 51°22.037 3°0.619 61.5 11.4 56 -999
2008-10-03 07:03:30 51°22.054 3°0.665 61.5 11.4 56 -999
2008-10-03 07:03:40 51°22.069 3°0.703 61.5 11.4 56 -999
2008-10-03 07:03:50 51°22.086 3°0.745 61.5 11.4 56 -999
2008-10-03 07:04:00 51°22.103 3°0.787 60.2 11.19 54 -999
2008-10-03 07:04:10 51°22.117 3°0.83 60.2 11.19 54 -999
2008-10-03 07:04:20 51°22.131 3°0.879 60.2 11.19 54 -999
2008-10-03 07:04:30 51°22.141 3°0.919 60.2 11.19 54 -999
2008-10-03 07:04:40 51°22.153 3°0.964 60.2 11.19 54 -999
2008-10-03 07:04:50 51°22.164 3°1.009 60.2 11.19 54 -999
2008-10-03 07:05:00 51°22.177 3°1.059 68.7 11 70 -999
2008-10-03 07:05:10 51°22.187 3°1.105 68.7 11 70 -999
2008-10-03 07:05:20 51°22.198 3°1.146 68.7 11 70 -999
2008-10-03 07:05:30 51°22.21 3°1.192 68.7 11 70 -999
2008-10-03 07:05:40 51°22.224 3°1.236 68.7 11 70 -999
2008-10-03 07:05:50 51°22.239 3°1.28 68.7 11 70 -999
2008-10-03 07:06:00 51°22.257 3°1.327 61.6 11.19 61 -999
2008-10-03 07:06:10 51°22.273 3°1.365 61.6 11.19 61 -999
2008-10-03 07:06:20 51°22.29 3°1.411 61.6 11.19 61 -999
2008-10-03 07:06:30 51°22.306 3°1.449 61.6 11.19 61 -999
2008-10-03 07:06:40 51°22.324 3°1.491 61.6 11.19 61 -999
2008-10-03 07:06:50 51°22.341 3°1.532 61.6 11.19 61 -999
2008-10-03 07:07:00 51°22.361 3°1.578 58.7 11.09 56 -999
2008-10-03 07:07:10 51°22.377 3°1.62 58.7 11.09 56 -999
2008-10-03 07:07:20 51°22.393 3°1.662 58.7 11.09 56 -999
2008-10-03 07:07:30 51°22.41 3°1.704 58.7 11.09 56 -999
2008-10-03 07:07:40 51°22.425 3°1.741 58.7 11.09 56 -999
2008-10-03 07:07:50 51°22.443 3°1.782 58.7 11.09 56 -999
2008-10-03 07:08:00 51°22.46 3°1.824 60.7 11.3 57 -999
2008-10-03 07:08:10 51°22.477 3°1.866 60.7 11.3 57 -999
2008-10-03 07:08:20 51°22.494 3°1.907 60.7 11.3 57 -999
2008-10-03 07:08:30 51°22.512 3°1.947 60.7 11.3 57 -999
2008-10-03 07:08:40 51°22.53 3°1.988 60.7 11.3 57 -999
2008-10-03 07:08:50 51°22.547 3°2.029 60.7 11.3 57 -999
2008-10-03 07:09:00 51°22.562 3°2.066 62.2 10.09 55 -999
2008-10-03 07:09:10 51°22.575 3°2.099 62.2 10.09 55 -999
2008-10-03 07:09:20 51°22.587 3°2.126 62.2 10.09 55 -999
2008-10-03 07:09:30 51°22.599 3°2.15 62.2 10.09 55 -999
2008-10-03 07:09:40 51°22.607 3°2.169 62.2 10.09 55 -999
2008-10-03 07:09:50 51°22.614 3°2.185 62.2 10.09 55 -999
2008-10-03 07:10:00 51°22.621 3°2.2 65 4.2 56 -999
2008-10-03 07:10:10 51°22.626 3°2.214 65 4.2 56 -999
2008-10-03 07:10:20 51°22.631 3°2.227 65 4.2 56 -999
2008-10-03 07:10:30 51°22.636 3°2.239 65 4.2 56 -999
2008-10-03 07:10:40 51°22.639 3°2.247 65 4.2 56 -999
2008-10-03 07:10:50 51°22.643 3°2.256 65 4.2 56 -999
2008-10-03 07:11:00 51°22.646 3°2.266 73.2 2.29 54 -999
2008-10-03 07:11:10 51°22.649 3°2.274 73.2 2.29 54 -999
2008-10-03 07:11:20 51°22.651 3°2.281 73.2 2.29 54 -999
2008-10-03 07:11:30 51°22.655 3°2.288 73.2 2.29 54 -999
2008-10-03 07:11:40 51°22.657 3°2.294 73.2 2.29 54 -999
2008-10-03 07:11:50 51°22.659 3°2.299 73.2 2.29 54 -999
2008-10-03 07:12:00 51°22.661 3°2.303 80.5 1.19 60 -999
2008-10-03 07:12:10 51°22.662 3°2.308 80.5 1.19 60 -999
2008-10-03 07:12:20 51°22.664 3°2.313 80.5 1.19 60 -999
2008-10-03 07:12:30 51°22.666 3°2.316 80.5 1.19 60 -999
2008-10-03 07:12:40 51°22.667 3°2.319 80.5 1.19 60 -999
2008-10-03 07:12:50 51°22.669 3°2.323 80.5 1.19 60 -999
2008-10-03 07:13:00 51°22.67 3°2.325 85.9 0.8 58 -999
2008-10-03 07:13:10 51°22.672 3°2.328 85.9 0.8 58 -999
2008-10-03 07:13:20 51°22.674 3°2.33 85.9 0.8 58 -999
2008-10-03 07:13:30 51°22.675 3°2.332 85.9 0.8 58 -999
2008-10-03 07:13:40 51°22.677 3°2.334 85.9 0.8 58 -999
2008-10-03 07:13:50 51°22.678 3°2.335 85.9 0.8 58 -999
2008-10-03 07:14:00 51°22.679 3°2.336 93.4 0.69 25 -999
2008-10-03 07:14:10 51°22.681 3°2.337 93.4 0.69 25 -999
2008-10-03 07:14:20 51°22.682 3°2.337 93.4 0.69 25 -999
2008-10-03 07:14:30 51°22.683 3°2.338 93.4 0.69 25 -999
2008-10-03 07:14:40 51°22.685 3°2.338 93.4 0.69 25 -999
2008-10-03 07:14:50 51°22.685 3°2.338 93.4 0.69 25 -999
2008-10-03 07:15:00 51°22.686 3°2.338 101.2 0.4 1 -999
2008-10-03 07:15:10 51°22.687 3°2.338 101.2 0.4 1 -999
2008-10-03 07:15:20 51°22.688 3°2.337 101.2 0.4 1 -999
2008-10-03 07:15:30 51°22.689 3°2.337 101.2 0.4 1 -999
2008-10-03 07:15:40 51°22.69 3°2.336 101.2 0.4 1 -999
2008-10-03 07:15:50 51°22.691 3°2.335 101.2 0.4 1 -999
2008-10-03 07:16:00 51°22.692 3°2.334 108 0.5 316 -999
2008-10-03 07:16:10 51°22.693 3°2.333 108 0.5 316 -999
2008-10-03 07:16:20 51°22.694 3°2.332 108 0.5 316 -999
2008-10-03 07:16:30 51°22.694 3°2.331 108 0.5 316 -999
2008-10-03 07:16:40 51°22.695 3°2.329 108 0.5 316 -999
2008-10-03 07:16:50 51°22.696 3°2.327 108 0.5 316 -999
2008-10-03 07:17:00 51°22.697 3°2.325 112.2 0.5 282 -999
2008-10-03 07:17:10 51°22.698 3°2.324 112.2 0.5 282 -999
2008-10-03 07:17:20 51°22.698 3°2.322 112.2 0.5 282 -999
2008-10-03 07:17:30 51°22.699 3°2.32 112.2 0.5 282 -999
2008-10-03 07:17:40 51°22.7 3°2.318 112.2 0.5 282 -999
2008-10-03 07:17:50 51°22.701 3°2.316 112.2 0.5 282 -999
2008-10-03 07:18:00 51°22.702 3°2.314 116.7 0.5 297 -999
2008-10-03 07:18:10 51°22.703 3°2.312 116.7 0.5 297 -999
2008-10-03 07:18:20 51°22.703 3°2.311 116.7 0.5 297 -999
2008-10-03 07:18:30 51°22.704 3°2.309 116.7 0.5 297 -999
2008-10-03 07:18:40 51°22.707 3°2.309 116.7 0.5 297 -999
2008-10-03 07:18:50 51°22.707 3°2.306 116.7 0.5 297 -999
2008-10-03 07:19:00 51°22.708 3°2.304 122.7 0.59 310 -999
2008-10-03 07:19:10 51°22.708 3°2.301 122.7 0.59 310 -999
2008-10-03 07:19:20 51°22.709 3°2.298 122.7 0.59 310 -999
2008-10-03 07:19:30 51°22.71 3°2.296 122.7 0.59 310 -999
2008-10-03 07:19:40 51°22.71 3°2.294 122.7 0.59 310 -999
2008-10-03 07:19:50 51°22.711 3°2.291 122.7 0.59 310 -999
2008-10-03 07:20:00 51°22.712 3°2.288 129.8 0.69 304 -999
2008-10-03 07:20:10 51°22.713 3°2.286 129.8 0.69 304 -999
2008-10-03 07:20:20 51°22.713 3°2.284 129.8 0.69 304 -999
2008-10-03 07:20:30 51°22.714 3°2.281 129.8 0.69 304 -999
2008-10-03 07:20:40 51°22.714 3°2.278 129.8 0.69 304 -999
2008-10-03 07:20:50 51°22.715 3°2.276 129.8 0.69 304 -999
2008-10-03 07:21:00 51°22.715 3°2.274 136.5 0.59 288 -999
2008-10-03 07:21:10 51°22.716 3°2.271 136.5 0.59 288 -999
2008-10-03 07:21:20 51°22.716 3°2.268 136.5 0.59 288 -999
2008-10-03 07:21:30 51°22.717 3°2.265 136.5 0.59 288 -999
2008-10-03 07:21:40 51°22.718 3°2.263 136.5 0.59 288 -999
2008-10-03 07:21:50 51°22.718 3°2.26 136.5 0.59 288 -999
2008-10-03 07:22:00 51°22.719 3°2.257 143.3 0.8 282 -999
2008-10-03 07:22:10 51°22.72 3°2.254 143.3 0.8 282 -999
2008-10-03 07:22:20 51°22.721 3°2.252 143.3 0.8 282 -999
2008-10-03 07:22:30 51°22.721 3°2.249 143.3 0.8 282 -999
2008-10-03 07:22:40 51°22.722 3°2.247 143.3 0.8 282 -999
2008-10-03 07:22:50 51°22.722 3°2.244 143.3 0.8 282 -999
2008-10-03 07:23:00 51°22.723 3°2.243 144.5 0.4 292 -999
2008-10-03 07:23:10 51°22.722 3°2.241 144.5 0.4 292 -999
2008-10-03 07:23:20 51°22.721 3°2.241 144.5 0.4 292 -999
2008-10-03 07:23:30 51°22.72 3°2.242 144.5 0.4 292 -999
2008-10-03 07:23:40 51°22.718 3°2.245 144.5 0.4 292 -999
2008-10-03 07:23:50 51°22.716 3°2.25 144.5 0.4 292 -999
2008-10-03 07:24:00 51°22.715 3°2.256 107.7 1.5 102 -999
2008-10-03 07:24:10 51°22.716 3°2.264 107.7 1.5 102 -999
2008-10-03 07:24:20 51°22.718 3°2.274 107.7 1.5 102 -999
2008-10-03 07:24:30 51°22.725 3°2.285 107.7 1.5 102 -999
2008-10-03 07:24:40 51°22.734 3°2.292 107.7 1.5 102 -999
2008-10-03 07:24:50 51°22.745 3°2.295 107.7 1.5 102 -999
2008-10-03 07:25:00 51°22.756 3°2.295 20.3 3.89 2 -999
2008-10-03 07:25:10 51°22.767 3°2.296 20.3 3.89 2 -999
2008-10-03 07:25:20 51°22.778 3°2.295 20.3 3.89 2 -999
2008-10-03 07:25:30 51°22.789 3°2.295 20.3 3.89 2 -999
2008-10-03 07:25:40 51°22.8 3°2.295 20.3 3.89 2 -999
2008-10-03 07:25:50 51°22.811 3°2.296 20.3 3.89 2 -999
2008-10-03 07:26:00 51°22.822 3°2.298 21.6 3.79 8 -999
2008-10-03 07:26:10 51°22.833 3°2.301 21.6 3.79 8 -999
2008-10-03 07:26:20 51°22.842 3°2.306 21.6 3.79 8 -999
2008-10-03 07:26:30 51°22.851 3°2.312 21.6 3.79 8 -999
2008-10-03 07:26:40 51°22.86 3°2.319 21.6 3.79 8 -999
2008-10-03 07:26:50 51°22.868 3°2.327 21.6 3.79 8 -999
2008-10-03 07:27:00 51°22.875 3°2.335 49.2 3.39 35 -999
2008-10-03 07:27:10 51°22.884 3°2.343 49.2 3.39 35 -999
2008-10-03 07:27:20 51°22.893 3°2.351 49.2 3.39 35 -999
2008-10-03 07:27:30 51°22.902 3°2.359 49.2 3.39 35 -999
2008-10-03 07:27:40 51°22.913 3°2.367 49.2 3.39 35 -999
2008-10-03 07:27:50 51°22.923 3°2.375 49.2 3.39 35 -999
2008-10-03 07:28:00 51°22.934 3°2.382 39.2 4.4 25 -999
2008-10-03 07:28:10 51°22.946 3°2.391 39.2 4.4 25 -999
2008-10-03 07:28:20 51°22.957 3°2.399 39.2 4.4 25 -999
2008-10-03 07:28:30 51°22.969 3°2.408 39.2 4.4 25 -999
2008-10-03 07:28:40 51°22.98 3°2.418 39.2 4.4 25 -999
2008-10-03 07:28:50 51°22.992 3°2.427 39.2 4.4 25 -999
2008-10-03 07:29:00 51°23.003 3°2.438 41.2 4.7 27 -999
2008-10-03 07:29:10 51°23.014 3°2.448 41.2 4.7 27 -999
2008-10-03 07:29:20 51°23.026 3°2.458 41.2 4.7 27 -999
2008-10-03 07:29:30 51°23.037 3°2.469 41.2 4.7 27 -999
2008-10-03 07:29:40 51°23.048 3°2.48 41.2 4.7 27 -999
2008-10-03 07:29:50 51°23.059 3°2.49 41.2 4.7 27 -999
2008-10-03 07:30:00 51°23.07 3°2.501 42.2 4.5 30 -999
2008-10-03 07:30:10 51°23.081 3°2.511 42.2 4.5 30 -999
2008-10-03 07:30:20 51°23.091 3°2.521 42.2 4.5 30 -999
2008-10-03 07:30:30 51°23.103 3°2.53 42.2 4.5 30 -999
2008-10-03 07:30:40 51°23.113 3°2.54 42.2 4.5 30 -999
2008-10-03 07:30:50 51°23.124 3°2.549 42.2 4.5 30 -999
2008-10-03 07:31:00 51°23.134 3°2.559 42 4.29 29 -999
2008-10-03 07:31:10 51°23.144 3°2.569 42 4.29 29 -999
2008-10-03 07:31:20 51°23.155 3°2.578 42 4.29 29 -999
2008-10-03 07:31:30 51°23.166 3°2.588 42 4.29 29 -999
2008-10-03 07:31:40 51°23.176 3°2.597 42 4.29 29 -999
2008-10-03 07:31:50 51°23.186 3°2.607 42 4.29 29 -999
2008-10-03 07:32:00 51°23.197 3°2.616 41.1 4.29 25 -999
2008-10-03 07:32:10 51°23.207 3°2.625 41.1 4.29 25 -999
2008-10-03 07:32:20 51°23.217 3°2.634 41.1 4.29 25 -999
2008-10-03 07:32:30 51°23.228 3°2.643 41.1 4.29 25 -999
2008-10-03 07:32:40 51°23.238 3°2.652 41.1 4.29 25 -999
2008-10-03 07:32:50 51°23.249 3°2.661 41.1 4.29 25 -999
2008-10-03 07:33:00 51°23.259 3°2.67 41.2 4.29 28 -999
2008-10-03 07:33:10 51°23.27 3°2.679 41.2 4.29 28 -999
2008-10-03 07:33:20 51°23.281 3°2.688 41.2 4.29 28 -999
2008-10-03 07:33:30 51°23.292 3°2.698 41.2 4.29 28 -999
2008-10-03 07:33:40 51°23.303 3°2.707 41.2 4.29 28 -999
2008-10-03 07:33:50 51°23.313 3°2.717 41.2 4.29 28 -999
2008-10-03 07:34:00 51°23.324 3°2.726 42 4.29 26 -999
2008-10-03 07:34:10 51°23.335 3°2.735 42 4.29 26 -999
2008-10-03 07:34:20 51°23.345 3°2.745 42 4.29 26 -999
2008-10-03 07:34:30 51°23.356 3°2.754 42 4.29 26 -999
2008-10-03 07:34:40 51°23.366 3°2.764 42 4.29 26 -999
2008-10-03 07:34:50 51°23.377 3°2.774 42 4.29 26 -999
2008-10-03 07:35:00 51°23.387 3°2.784 43.5 4.4 30 -999
2008-10-03 07:35:10 51°23.398 3°2.793 43.5 4.4 30 -999
2008-10-03 07:35:20 51°23.409 3°2.802 43.5 4.4 30 -999
2008-10-03 07:35:30 51°23.42 3°2.812 43.5 4.4 30 -999
2008-10-03 07:35:40 51°23.431 3°2.82 43.5 4.4 30 -999
2008-10-03 07:35:50 51°23.442 3°2.829 43.5 4.4 30 -999
2008-10-03 07:36:00 51°23.452 3°2.838 40.7 4.2 24 -999
2008-10-03 07:36:10 51°23.46 3°2.848 40.7 4.2 24 -999
2008-10-03 07:36:20 51°23.468 3°2.858 40.7 4.2 24 -999
2008-10-03 07:36:30 51°23.474 3°2.87 40.7 4.2 24 -999
2008-10-03 07:36:40 51°23.479 3°2.882 40.7 4.2 24 -999
2008-10-03 07:36:50 51°23.485 3°2.895 40.7 4.2 24 -999
2008-10-03 07:37:00 51°23.491 3°2.908 64.9 3.79 55 -999
2008-10-03 07:37:10 51°23.496 3°2.923 64.9 3.79 55 -999
2008-10-03 07:37:20 51°23.502 3°2.938 64.9 3.79 55 -999
2008-10-03 07:37:30 51°23.509 3°2.953 64.9 3.79 55 -999
2008-10-03 07:37:40 51°23.515 3°2.969 64.9 3.79 55 -999
2008-10-03 07:37:50 51°23.521 3°2.986 64.9 3.79 55 -999
2008-10-03 07:38:00 51°23.526 3°3.003 70.5 4.2 71 -999
2008-10-03 07:38:10 51°23.529 3°3.021 70.5 4.2 71 -999
2008-10-03 07:38:20 51°23.532 3°3.039 70.5 4.2 71 -999
2008-10-03 07:38:30 51°23.533 3°3.057 70.5 4.2 71 -999
2008-10-03 07:38:40 51°23.533 3°3.075 70.5 4.2 71 -999
2008-10-03 07:38:50 51°23.532 3°3.093 70.5 4.2 71 -999
2008-10-03 07:39:00 51°23.53 3°3.111 99.2 4.09 99 -999
2008-10-03 07:39:10 51°23.528 3°3.129 99.2 4.09 99 -999
2008-10-03 07:39:20 51°23.525 3°3.147 99.2 4.09 99 -999
2008-10-03 07:39:30 51°23.52 3°3.163 99.2 4.09 99 -999
2008-10-03 07:39:40 51°23.515 3°3.176 99.2 4.09 99 -999
2008-10-03 07:39:50 51°23.507 3°3.188 99.2 4.09 99 -999
2008-10-03 07:40:00 51°23.499 3°3.198 132.6 3.6 144 -999
2008-10-03 07:40:10 51°23.491 3°3.205 132.6 3.6 144 -999
2008-10-03 07:40:20 51°23.482 3°3.21 132.6 3.6 144 -999
2008-10-03 07:40:30 51°23.474 3°3.213 132.6 3.6 144 -999
2008-10-03 07:40:40 51°23.466 3°3.216 132.6 3.6 144 -999
2008-10-03 07:40:50 51°23.457 3°3.216 132.6 3.6 144 -999
2008-10-03 07:41:00 51°23.448 3°3.216 163.8 3.29 187 -999
2008-10-03 07:41:10 51°23.439 3°3.213 163.8 3.29 187 -999
2008-10-03 07:41:20 51°23.43 3°3.207 163.8 3.29 187 -999
2008-10-03 07:41:30 51°23.42 3°3.2 163.8 3.29 187 -999
2008-10-03 07:41:40 51°23.411 3°3.191 163.8 3.29 187 -999
2008-10-03 07:41:50 51°23.403 3°3.179 163.8 3.29 187 -999
2008-10-03 07:42:00 51°23.395 3°3.165 210.6 4.2 232 -999
2008-10-03 07:42:10 51°23.388 3°3.15 210.6 4.2 232 -999
2008-10-03 07:42:20 51°23.383 3°3.132 210.6 4.2 232 -999
2008-10-03 07:42:30 51°23.38 3°3.113 210.6 4.2 232 -999
2008-10-03 07:42:40 51°23.378 3°3.093 210.6 4.2 232 -999
2008-10-03 07:42:50 51°23.378 3°3.073 210.6 4.2 232 -999
2008-10-03 07:43:00 51°23.378 3°3.053 268.6 4.5 277 -999
2008-10-03 07:43:10 51°23.38 3°3.034 268.6 4.5 277 -999
2008-10-03 07:43:20 51°23.382 3°3.014 268.6 4.5 277 -999
2008-10-03 07:43:30 51°23.384 3°2.995 268.6 4.5 277 -999
2008-10-03 07:43:40 51°23.387 3°2.976 268.6 4.5 277 -999
2008-10-03 07:43:50 51°23.39 3°2.959 268.6 4.5 277 -999
2008-10-03 07:44:00 51°23.394 3°2.942 288.3 4 289 -999
2008-10-03 07:44:10 51°23.398 3°2.927 288.3 4 289 -999
2008-10-03 07:44:20 51°23.402 3°2.911 288.3 4 289 -999
2008-10-03 07:44:30 51°23.407 3°2.895 288.3 4 289 -999
2008-10-03 07:44:40 51°23.412 3°2.879 288.3 4 289 -999
2008-10-03 07:44:50 51°23.416 3°2.863 288.3 4 289 -999
2008-10-03 07:45:00 51°23.421 3°2.848 301.3 3.7 299 -999
2008-10-03 07:45:10 51°23.426 3°2.833 301.3 3.7 299 -999
2008-10-03 07:45:20 51°23.43 3°2.817 301.3 3.7 299 -999
2008-10-03 07:45:30 51°23.435 3°2.801 301.3 3.7 299 -999
2008-10-03 07:45:40 51°23.44 3°2.786 301.3 3.7 299 -999
2008-10-03 07:45:50 51°23.445 3°2.773 301.3 3.7 299 -999
2008-10-03 07:46:00 51°23.451 3°2.761 317.6 3.5 305 -999
2008-10-03 07:46:10 51°23.457 3°2.748 317.6 3.5 305 -999
2008-10-03 07:46:20 51°23.462 3°2.734 317.6 3.5 305 -999
2008-10-03 07:46:30 51°23.466 3°2.72 317.6 3.5 305 -999
2008-10-03 07:46:40 51°23.47 3°2.706 317.6 3.5 305 -999
2008-10-03 07:46:50 51°23.473 3°2.691 317.6 3.5 305 -999
2008-10-03 07:47:00 51°23.476 3°2.676 290.6 3.5 286 -999
2008-10-03 07:47:10 51°23.479 3°2.662 290.6 3.5 286 -999
2008-10-03 07:47:20 51°23.48 3°2.647 290.6 3.5 286 -999
2008-10-03 07:47:30 51°23.481 3°2.633 290.6 3.5 286 -999
2008-10-03 07:47:40 51°23.481 3°2.619 290.6 3.5 286 -999
2008-10-03 07:47:50 51°23.481 3°2.605 290.6 3.5 286 -999
2008-10-03 07:48:00 51°23.48 3°2.592 251.8 3 261 -999
2008-10-03 07:48:10 51°23.477 3°2.579 251.8 3 261 -999
2008-10-03 07:48:20 51°23.474 3°2.566 251.8 3 261 -999
2008-10-03 07:48:30 51°23.469 3°2.555 251.8 3 261 -999
2008-10-03 07:48:40 51°23.463 3°2.545 251.8 3 261 -999
2008-10-03 07:48:50 51°23.454 3°2.535 251.8 3 261 -999
2008-10-03 07:49:00 51°23.445 3°2.528 192.5 3.79 202 -999
2008-10-03 07:49:10 51°23.435 3°2.523 192.5 3.79 202 -999
2008-10-03 07:49:20 51°23.424 3°2.522 192.5 3.79 202 -999
2008-10-03 07:49:30 51°23.411 3°2.522 192.5 3.79 202 -999
2008-10-03 07:49:40 51°23.398 3°2.52 192.5 3.79 202 -999
2008-10-03 07:49:50 51°23.386 3°2.519 192.5 3.79 202 -999
2008-10-03 07:50:00 51°23.37 3°2.516 172.5 5.2 185 -999
2008-10-03 07:50:10 51°23.356 3°2.513 172.5 5.2 185 -999
2008-10-03 07:50:20 51°23.341 3°2.509 172.5 5.2 185 -999
2008-10-03 07:50:30 51°23.326 3°2.505 172.5 5.2 185 -999
2008-10-03 07:50:40 51°23.313 3°2.5 172.5 5.2 185 -999
2008-10-03 07:50:50 51°23.3 3°2.494 172.5 5.2 185 -999
2008-10-03 07:51:00 51°23.287 3°2.489 182 4.59 196 -999
2008-10-03 07:51:10 51°23.276 3°2.482 182 4.59 196 -999
2008-10-03 07:51:20 51°23.264 3°2.476 182 4.59 196 -999
2008-10-03 07:51:30 51°23.254 3°2.469 182 4.59 196 -999
2008-10-03 07:51:40 51°23.243 3°2.462 182 4.59 196 -999
2008-10-03 07:51:50 51°23.233 3°2.455 182 4.59 196 -999
2008-10-03 07:52:00 51°23.223 3°2.448 187.4 4 203 -999
2008-10-03 07:52:10 51°23.213 3°2.441 187.4 4 203 -999
2008-10-03 07:52:20 51°23.203 3°2.434 187.4 4 203 -999
2008-10-03 07:52:30 51°23.193 3°2.427 187.4 4 203 -999
2008-10-03 07:52:40 51°23.184 3°2.419 187.4 4 203 -999
2008-10-03 07:52:50 51°23.174 3°2.412 187.4 4 203 -999
2008-10-03 07:53:00 51°23.164 3°2.405 186.3 3.89 203 -999
2008-10-03 07:53:10 51°23.154 3°2.398 186.3 3.89 203 -999
2008-10-03 07:53:20 51°23.144 3°2.391 186.3 3.89 203 -999
2008-10-03 07:53:30 51°23.135 3°2.385 186.3 3.89 203 -999
2008-10-03 07:53:40 51°23.125 3°2.379 186.3 3.89 203 -999
2008-10-03 07:53:50 51°23.115 3°2.373 186.3 3.89 203 -999
2008-10-03 07:54:00 51°23.106 3°2.366 184.3 3.7 202 -999
2008-10-03 07:54:10 51°23.096 3°2.359 184.3 3.7 202 -999
2008-10-03 07:54:20 51°23.087 3°2.352 184.3 3.7 202 -999
2008-10-03 07:54:30 51°23.077 3°2.346 184.3 3.7 202 -999
2008-10-03 07:54:40 51°23.067 3°2.34 184.3 3.7 202 -999
2008-10-03 07:54:50 51°23.058 3°2.335 184.3 3.7 202 -999
2008-10-03 07:55:00 51°23.048 3°2.33 178.4 3.6 196 -999
2008-10-03 07:55:10 51°23.039 3°2.325 178.4 3.6 196 -999
2008-10-03 07:55:20 51°23.029 3°2.321 178.4 3.6 196 -999
2008-10-03 07:55:30 51°23.019 3°2.317 178.4 3.6 196 -999
2008-10-03 07:55:40 51°23.01 3°2.313 178.4 3.6 196 -999
2008-10-03 07:55:50 51°23 3°2.309 178.4 3.6 196 -999
2008-10-03 07:56:00 51°22.991 3°2.304 177.8 3.6 197 -999
2008-10-03 07:56:10 51°22.981 3°2.298 177.8 3.6 197 -999
2008-10-03 07:56:20 51°22.972 3°2.293 177.8 3.6 197 -999
2008-10-03 07:56:30 51°22.962 3°2.288 177.8 3.6 197 -999
2008-10-03 07:56:40 51°22.952 3°2.282 177.8 3.6 197 -999
2008-10-03 07:56:50 51°22.943 3°2.276 177.8 3.6 197 -999
2008-10-03 07:57:00 51°22.933 3°2.27 182.8 3.79 199 -999
2008-10-03 07:57:10 51°22.923 3°2.265 182.8 3.79 199 -999
2008-10-03 07:57:20 51°22.913 3°2.258 182.8 3.79 199 -999
2008-10-03 07:57:30 51°22.903 3°2.252 182.8 3.79 199 -999
2008-10-03 07:57:40 51°22.893 3°2.246 182.8 3.79 199 -999
2008-10-03 07:57:50 51°22.883 3°2.24 182.8 3.79 199 -999
2008-10-03 07:58:00 51°22.874 3°2.233 183 3.79 203 -999
2008-10-03 07:58:10 51°22.863 3°2.226 183 3.79 203 -999
2008-10-03 07:58:20 51°22.854 3°2.221 183 3.79 203 -999
2008-10-03 07:58:30 51°22.844 3°2.215 183 3.79 203 -999
2008-10-03 07:58:40 51°22.833 3°2.209 183 3.79 203 -999
2008-10-03 07:58:50 51°22.823 3°2.204 183 3.79 203 -999
2008-10-03 07:59:00 51°22.813 3°2.198 181.4 3.79 200 -999
2008-10-03 07:59:10 51°22.803 3°2.193 181.4 3.79 200 -999
2008-10-03 07:59:20 51°22.793 3°2.187 181.4 3.79 200 -999
2008-10-03 07:59:30 51°22.783 3°2.181 181.4 3.79 200 -999
2008-10-03 07:59:40 51°22.773 3°2.176 181.4 3.79 200 -999
2008-10-03 07:59:50 51°22.763 3°2.17 181.4 3.79 200 -999
2008-10-03 08:00:00 51°22.753 3°2.164 180.1 3.79 197 -999
2008-10-03 08:00:10 51°22.743 3°2.158 180.1 3.79 197 -999
2008-10-03 08:00:20 51°22.733 3°2.152 180.1 3.79 197 -999
2008-10-03 08:00:30 51°22.723 3°2.145 180.1 3.79 197 -999
2008-10-03 08:00:40 51°22.713 3°2.14 180.1 3.79 197 -999
2008-10-03 08:00:50 51°22.703 3°2.134 180.1 3.79 197 -999
2008-10-03 08:01:00 51°22.692 3°2.128 178.5 4 202 -999
2008-10-03 08:01:10 51°22.682 3°2.122 178.5 4 202 -999
2008-10-03 08:01:20 51°22.672 3°2.116 178.5 4 202 -999
2008-10-03 08:01:30 51°22.662 3°2.11 178.5 4 202 -999
2008-10-03 08:01:40 51°22.651 3°2.103 178.5 4 202 -999
2008-10-03 08:01:50 51°22.641 3°2.096 178.5 4 202 -999
2008-10-03 08:02:00 51°22.63 3°2.089 179.4 4.09 203 -999
2008-10-03 08:02:10 51°22.62 3°2.083 179.4 4.09 203 -999
2008-10-03 08:02:20 51°22.609 3°2.077 179.4 4.09 203 -999
2008-10-03 08:02:30 51°22.599 3°2.072 179.4 4.09 203 -999
2008-10-03 08:02:40 51°22.59 3°2.069 179.4 4.09 203 -999
2008-10-03 08:02:50 51°22.58 3°2.067 179.4 4.09 203 -999
2008-10-03 08:03:00 51°22.573 3°2.068 150.5 2.7 176 -999
2008-10-03 08:03:10 51°22.567 3°2.071 150.5 2.7 176 -999
2008-10-03 08:03:20 51°22.562 3°2.076 150.5 2.7 176 -999
2008-10-03 08:03:30 51°22.558 3°2.083 150.5 2.7 176 -999
2008-10-03 08:03:40 51°22.556 3°2.092 150.5 2.7 176 -999
2008-10-03 08:03:50 51°22.555 3°2.103 150.5 2.7 176 -999
2008-10-03 08:04:00 51°22.554 3°2.117 92 3 99 -999
2008-10-03 08:04:10 51°22.554 3°2.131 92 3 99 -999
2008-10-03 08:04:20 51°22.554 3°2.147 92 3 99 -999
2008-10-03 08:04:30 51°22.553 3°2.164 92 3 99 -999
2008-10-03 08:04:40 51°22.553 3°2.182 92 3 99 -999
2008-10-03 08:04:50 51°22.553 3°2.201 92 3 99 -999
2008-10-03 08:05:00 51°22.553 3°2.222 89.5 4.59 90 -999
2008-10-03 08:05:10 51°22.552 3°2.242 89.5 4.59 90 -999
2008-10-03 08:05:20 51°22.552 3°2.264 89.5 4.59 90 -999
2008-10-03 08:05:30 51°22.551 3°2.286 89.5 4.59 90 -999
2008-10-03 08:05:40 51°22.551 3°2.308 89.5 4.59 90 -999
2008-10-03 08:05:50 51°22.55 3°2.33 89.5 4.59 90 -999
2008-10-03 08:06:00 51°22.55 3°2.352 90 5 95 -999
2008-10-03 08:06:10 51°22.549 3°2.374 90 5 95 -999
2008-10-03 08:06:20 51°22.549 3°2.396 90 5 95 -999
2008-10-03 08:06:30 51°22.548 3°2.417 90 5 95 -999
2008-10-03 08:06:40 51°22.548 3°2.438 90 5 95 -999
2008-10-03 08:06:50 51°22.547 3°2.46 90 5 95 -999
2008-10-03 08:07:00 51°22.547 3°2.479 92 4.29 92 -999
2008-10-03 08:07:10 51°22.55 3°2.495 92 4.29 92 -999
2008-10-03 08:07:20 51°22.555 3°2.506 92 4.29 92 -999
2008-10-03 08:07:30 51°22.561 3°2.515 92 4.29 92 -999
2008-10-03 08:07:40 51°22.569 3°2.52 92 4.29 92 -999
2008-10-03 08:07:50 51°22.578 3°2.521 92 4.29 92 -999
2008-10-03 08:08:00 51°22.587 3°2.519 20.1 3.29 349 -999
2008-10-03 08:08:10 51°22.596 3°2.514 20.1 3.29 349 -999
2008-10-03 08:08:20 51°22.605 3°2.506 20.1 3.29 349 -999
2008-10-03 08:08:30 51°22.613 3°2.494 20.1 3.29 349 -999
2008-10-03 08:08:40 51°22.621 3°2.481 20.1 3.29 349 -999
2008-10-03 08:08:50 51°22.627 3°2.466 20.1 3.29 349 -999
2008-10-03 08:09:00 51°22.631 3°2.449 311.6 4.29 295 -999
2008-10-03 08:09:10 51°22.635 3°2.431 311.6 4.29 295 -999
2008-10-03 08:09:20 51°22.637 3°2.413 311.6 4.29 295 -999
2008-10-03 08:09:30 51°22.638 3°2.394 311.6 4.29 295 -999
2008-10-03 08:09:40 51°22.637 3°2.374 311.6 4.29 295 -999
2008-10-03 08:09:50 51°22.638 3°2.355 311.6 4.29 295 -999
2008-10-03 08:10:00 51°22.639 3°2.336 275.6 4.29 277 -999
2008-10-03 08:10:10 51°22.641 3°2.319 275.6 4.29 277 -999
2008-10-03 08:10:20 51°22.644 3°2.299 275.6 4.29 277 -999
2008-10-03 08:10:30 51°22.647 3°2.28 275.6 4.29 277 -999
2008-10-03 08:10:40 51°22.651 3°2.261 275.6 4.29 277 -999
2008-10-03 08:10:50 51°22.654 3°2.242 275.6 4.29 277 -999
2008-10-03 08:11:00 51°22.656 3°2.223 287.1 4.4 281 -999
2008-10-03 08:11:10 51°22.657 3°2.203 287.1 4.4 281 -999
2008-10-03 08:11:20 51°22.658 3°2.184 287.1 4.4 281 -999
2008-10-03 08:11:30 51°22.659 3°2.164 287.1 4.4 281 -999
2008-10-03 08:11:40 51°22.661 3°2.144 287.1 4.4 281 -999
2008-10-03 08:11:50 51°22.662 3°2.124 287.1 4.4 281 -999
2008-10-03 08:12:00 51°22.664 3°2.105 279.1 4.59 276 -999
2008-10-03 08:12:10 51°22.665 3°2.083 279.1 4.59 276 -999
2008-10-03 08:12:20 51°22.666 3°2.062 279.1 4.59 276 -999
2008-10-03 08:12:30 51°22.666 3°2.042 279.1 4.59 276 -999
2008-10-03 08:12:40 51°22.667 3°2.023 279.1 4.59 276 -999
2008-10-03 08:12:50 51°22.667 3°2.004 279.1 4.59 276 -999
2008-10-03 08:13:00 51°22.667 3°1.985 273.3 4.2 273 -999
2008-10-03 08:13:10 51°22.667 3°1.967 273.3 4.2 273 -999
2008-10-03 08:13:20 51°22.667 3°1.949 273.3 4.2 273 -999
2008-10-03 08:13:30 51°22.667 3°1.931 273.3 4.2 273 -999
2008-10-03 08:13:40 51°22.668 3°1.913 273.3 4.2 273 -999
2008-10-03 08:13:50 51°22.668 3°1.896 273.3 4.2 273 -999
2008-10-03 08:14:00 51°22.669 3°1.879 276 4 274 -999
2008-10-03 08:14:10 51°22.67 3°1.862 276 4 274 -999
2008-10-03 08:14:20 51°22.671 3°1.845 276 4 274 -999
2008-10-03 08:14:30 51°22.671 3°1.828 276 4 274 -999
2008-10-03 08:14:40 51°22.67 3°1.81 276 4 274 -999
2008-10-03 08:14:50 51°22.668 3°1.793 276 4 274 -999
2008-10-03 08:15:00 51°22.665 3°1.777 248 4.2 249 -999
2008-10-03 08:15:10 51°22.658 3°1.76 248 4.2 249 -999
2008-10-03 08:15:20 51°22.651 3°1.746 248 4.2 249 -999
2008-10-03 08:15:30 51°22.643 3°1.734 248 4.2 249 -999
2008-10-03 08:15:40 51°22.635 3°1.726 248 4.2 249 -999
2008-10-03 08:15:50 51°22.625 3°1.721 248 4.2 249 -999
2008-10-03 08:16:00 51°22.616 3°1.719 170.5 3.2 187 -999
2008-10-03 08:16:10 51°22.608 3°1.721 170.5 3.2 187 -999
2008-10-03 08:16:20 51°22.601 3°1.726 170.5 3.2 187 -999
2008-10-03 08:16:30 51°22.596 3°1.734 170.5 3.2 187 -999
2008-10-03 08:16:40 51°22.594 3°1.746 170.5 3.2 187 -999
2008-10-03 08:16:50 51°22.593 3°1.758 170.5 3.2 187 -999
2008-10-03 08:17:00 51°22.597 3°1.771 81.5 3.1 66 -999
2008-10-03 08:17:10 51°22.603 3°1.784 81.5 3.1 66 -999
2008-10-03 08:17:20 51°22.611 3°1.798 81.5 3.1 66 -999
2008-10-03 08:17:30 51°22.618 3°1.814 81.5 3.1 66 -999
2008-10-03 08:17:40 51°22.626 3°1.832 81.5 3.1 66 -999
2008-10-03 08:17:50 51°22.633 3°1.851 81.5 3.1 66 -999
2008-10-03 08:18:00 51°22.639 3°1.871 66.4 5.09 63 -999
2008-10-03 08:18:10 51°22.645 3°1.891 66.4 5.09 63 -999
2008-10-03 08:18:20 51°22.65 3°1.911 66.4 5.09 63 -999
2008-10-03 08:18:30 51°22.653 3°1.93 66.4 5.09 63 -999
2008-10-03 08:18:40 51°22.656 3°1.949 66.4 5.09 63 -999
2008-10-03 08:18:50 51°22.658 3°1.967 66.4 5.09 63 -999
2008-10-03 08:19:00 51°22.659 3°1.985 81.9 4 84 -999
2008-10-03 08:19:10 51°22.661 3°2.002 81.9 4 84 -999
2008-10-03 08:19:20 51°22.661 3°2.019 81.9 4 84 -999
2008-10-03 08:19:30 51°22.661 3°2.035 81.9 4 84 -999
2008-10-03 08:19:40 51°22.66 3°2.052 81.9 4 84 -999
2008-10-03 08:19:50 51°22.661 3°2.068 81.9 4 84 -999
2008-10-03 08:20:00 51°22.662 3°2.084 83.9 3.5 81 -999
2008-10-03 08:20:10 51°22.665 3°2.099 83.9 3.5 81 -999
2008-10-03 08:20:20 51°22.668 3°2.114 83.9 3.5 81 -999
2008-10-03 08:20:30 51°22.67 3°2.129 83.9 3.5 81 -999
2008-10-03 08:20:40 51°22.669 3°2.143 83.9 3.5 81 -999
2008-10-03 08:20:50 51°22.668 3°2.157 83.9 3.5 81 -999
2008-10-03 08:21:00 51°22.666 3°2.172 93.2 3.39 102 -999
2008-10-03 08:21:10 51°22.665 3°2.187 93.2 3.39 102 -999
2008-10-03 08:21:20 51°22.665 3°2.201 93.2 3.39 102 -999
2008-10-03 08:21:30 51°22.665 3°2.22 93.2 3.39 102 -999
2008-10-03 08:21:40 51°22.664 3°2.239 93.2 3.39 102 -999
2008-10-03 08:21:50 51°22.665 3°2.258 93.2 3.39 102 -999
2008-10-03 08:22:00 51°22.665 3°2.277 86.2 4.5 90 -999
2008-10-03 08:22:10 51°22.666 3°2.295 86.2 4.5 90 -999
2008-10-03 08:22:20 51°22.667 3°2.316 86.2 4.5 90 -999
2008-10-03 08:22:30 51°22.665 3°2.336 86.2 4.5 90 -999
2008-10-03 08:22:40 51°22.66 3°2.357 86.2 4.5 90 -999
2008-10-03 08:22:50 51°22.655 3°2.374 86.2 4.5 90 -999
2008-10-03 08:23:00 51°22.648 3°2.392 111.2 4.79 123 -999
2008-10-03 08:23:10 51°22.641 3°2.41 111.2 4.79 123 -999
2008-10-03 08:23:20 51°22.635 3°2.428 111.2 4.79 123 -999
2008-10-03 08:23:30 51°22.627 3°2.449 111.2 4.79 123 -999
2008-10-03 08:23:40 51°22.621 3°2.469 111.2 4.79 123 -999
2008-10-03 08:23:50 51°22.616 3°2.488 111.2 4.79 123 -999
2008-10-03 08:24:00 51°22.615 3°2.506 100.2 4 94 -999
2008-10-03 08:24:10 51°22.617 3°2.522 100.2 4 94 -999
2008-10-03 08:24:20 51°22.622 3°2.533 100.2 4 94 -999
2008-10-03 08:24:30 51°22.628 3°2.543 100.2 4 94 -999
2008-10-03 08:24:40 51°22.637 3°2.548 100.2 4 94 -999
2008-10-03 08:24:50 51°22.646 3°2.55 100.2 4 94 -999
2008-10-03 08:25:00 51°22.655 3°2.547 15.9 3.5 348 -999
2008-10-03 08:25:10 51°22.664 3°2.54 15.9 3.5 348 -999
2008-10-03 08:25:20 51°22.672 3°2.53 15.9 3.5 348 -999
2008-10-03 08:25:30 51°22.679 3°2.519 15.9 3.5 348 -999
2008-10-03 08:25:40 51°22.685 3°2.504 15.9 3.5 348 -999
2008-10-03 08:25:50 51°22.689 3°2.487 15.9 3.5 348 -999
2008-10-03 08:26:00 51°22.693 3°2.468 299.8 4.2 283 -999
2008-10-03 08:26:10 51°22.694 3°2.451 299.8 4.2 283 -999
2008-10-03 08:26:20 51°22.694 3°2.431 299.8 4.2 283 -999
2008-10-03 08:26:30 51°22.693 3°2.412 299.8 4.2 283 -999
2008-10-03 08:26:40 51°22.691 3°2.391 299.8 4.2 283 -999
2008-10-03 08:26:50 51°22.688 3°2.371 299.8 4.2 283 -999
2008-10-03 08:27:00 51°22.685 3°2.351 257.3 4.59 256 -999
2008-10-03 08:27:10 51°22.683 3°2.331 257.3 4.59 256 -999
2008-10-03 08:27:20 51°22.68 3°2.312 257.3 4.59 256 -999
2008-10-03 08:27:30 51°22.678 3°2.294 257.3 4.59 256 -999
2008-10-03 08:27:40 51°22.676 3°2.275 257.3 4.59 256 -999
2008-10-03 08:27:50 51°22.674 3°2.256 257.3 4.59 256 -999
2008-10-03 08:28:00 51°22.673 3°2.238 263.1 4.2 265 -999
2008-10-03 08:28:10 51°22.671 3°2.219 263.1 4.2 265 -999
2008-10-03 08:28:20 51°22.67 3°2.201 263.1 4.2 265 -999
2008-10-03 08:28:30 51°22.669 3°2.181 263.1 4.2 265 -999
2008-10-03 08:28:40 51°22.668 3°2.163 263.1 4.2 265 -999
2008-10-03 08:28:50 51°22.667 3°2.147 263.1 4.2 265 -999
2008-10-03 08:29:00 51°22.666 3°2.129 267.5 4.09 260 -999
2008-10-03 08:29:10 51°22.665 3°2.111 267.5 4.09 260 -999
2008-10-03 08:29:20 51°22.664 3°2.092 267.5 4.09 260 -999
2008-10-03 08:29:30 51°22.662 3°2.076 267.5 4.09 260 -999
2008-10-03 08:29:40 51°22.661 3°2.057 267.5 4.09 260 -999
2008-10-03 08:29:50 51°22.659 3°2.039 267.5 4.09 260 -999
2008-10-03 08:30:00 51°22.658 3°2.023 261.1 4.2 259 -999
2008-10-03 08:30:10 51°22.656 3°2.004 261.1 4.2 259 -999
2008-10-03 08:30:20 51°22.654 3°1.983 261.1 4.2 259 -999
2008-10-03 08:30:30 51°22.652 3°1.964 261.1 4.2 259 -999
2008-10-03 08:30:40 51°22.651 3°1.946 261.1 4.2 259 -999
2008-10-03 08:30:50 51°22.649 3°1.926 261.1 4.2 259 -999
2008-10-03 08:31:00 51°22.649 3°1.904 268.8 4.5 271 -999
2008-10-03 08:31:10 51°22.648 3°1.884 268.8 4.5 271 -999
2008-10-03 08:31:20 51°22.649 3°1.866 268.8 4.5 271 -999
2008-10-03 08:31:30 51°22.65 3°1.846 268.8 4.5 271 -999
2008-10-03 08:31:40 51°22.651 3°1.824 268.8 4.5 271 -999
2008-10-03 08:31:50 51°22.653 3°1.804 268.8 4.5 271 -999
2008-10-03 08:32:00 51°22.654 3°1.785 284.1 4.59 279 -999
2008-10-03 08:32:10 51°22.656 3°1.765 284.1 4.59 279 -999
2008-10-03 08:32:20 51°22.657 3°1.745 284.1 4.59 279 -999
2008-10-03 08:32:30 51°22.66 3°1.723 284.1 4.59 279 -999
2008-10-03 08:32:40 51°22.662 3°1.705 284.1 4.59 279 -999
2008-10-03 08:32:50 51°22.663 3°1.684 284.1 4.59 279 -999
2008-10-03 08:33:00 51°22.665 3°1.664 283.6 4.59 280 -999
2008-10-03 08:33:10 51°22.666 3°1.643 283.6 4.59 280 -999
2008-10-03 08:33:20 51°22.665 3°1.621 283.6 4.59 280 -999
2008-10-03 08:33:30 51°22.662 3°1.596 283.6 4.59 280 -999
2008-10-03 08:33:40 51°22.655 3°1.575 283.6 4.59 280 -999
2008-10-03 08:33:50 51°22.647 3°1.558 283.6 4.59 280 -999
2008-10-03 08:34:00 51°22.635 3°1.542 216.9 5.29 216 -999
2008-10-03 08:34:10 51°22.623 3°1.534 216.9 5.29 216 -999
2008-10-03 08:34:20 51°22.61 3°1.529 216.9 5.29 216 -999
2008-10-03 08:34:30 51°22.596 3°1.53 216.9 5.29 216 -999
2008-10-03 08:34:40 51°22.586 3°1.536 216.9 5.29 216 -999
2008-10-03 08:34:50 51°22.577 3°1.547 216.9 5.29 216 -999
2008-10-03 08:35:00 51°22.571 3°1.562 117 3.7 123 -999
2008-10-03 08:35:10 51°22.569 3°1.577 117 3.7 123 -999
2008-10-03 08:35:20 51°22.571 3°1.593 117 3.7 123 -999
2008-10-03 08:35:30 51°22.575 3°1.607 117 3.7 123 -999
2008-10-03 08:35:40 51°22.581 3°1.627 117 3.7 123 -999
2008-10-03 08:35:50 51°22.586 3°1.644 117 3.7 123 -999
2008-10-03 08:36:00 51°22.59 3°1.666 71.4 5.09 71 -999
2008-10-03 08:36:10 51°22.594 3°1.688 71.4 5.09 71 -999
2008-10-03 08:36:20 51°22.598 3°1.709 71.4 5.09 71 -999
2008-10-03 08:36:30 51°22.6 3°1.73 71.4 5.09 71 -999
2008-10-03 08:36:40 51°22.602 3°1.749 71.4 5.09 71 -999
2008-10-03 08:36:50 51°22.605 3°1.769 71.4 5.09 71 -999
2008-10-03 08:37:00 51°22.606 3°1.786 78.9 3.89 77 -999
2008-10-03 08:37:10 51°22.608 3°1.803 78.9 3.89 77 -999
2008-10-03 08:37:20 51°22.61 3°1.819 78.9 3.89 77 -999
2008-10-03 08:37:30 51°22.612 3°1.833 78.9 3.89 77 -999
2008-10-03 08:37:40 51°22.614 3°1.848 78.9 3.89 77 -999
2008-10-03 08:37:50 51°22.617 3°1.863 78.9 3.89 77 -999
2008-10-03 08:38:00 51°22.619 3°1.877 72.7 3.39 80 -999
2008-10-03 08:38:10 51°22.623 3°1.892 72.7 3.39 80 -999
2008-10-03 08:38:20 51°22.626 3°1.905 72.7 3.39 80 -999
2008-10-03 08:38:30 51°22.628 3°1.918 72.7 3.39 80 -999
2008-10-03 08:38:40 51°22.632 3°1.932 72.7 3.39 80 -999
2008-10-03 08:38:50 51°22.635 3°1.948 72.7 3.39 80 -999
2008-10-03 08:39:00 51°22.639 3°1.964 71.2 4 70 -999
2008-10-03 08:39:10 51°22.643 3°1.982 71.2 4 70 -999
2008-10-03 08:39:20 51°22.647 3°2 71.2 4 70 -999
2008-10-03 08:39:30 51°22.651 3°2.018 71.2 4 70 -999
2008-10-03 08:39:40 51°22.655 3°2.039 71.2 4 70 -999
2008-10-03 08:39:50 51°22.658 3°2.057 71.2 4 70 -999
2008-10-03 08:40:00 51°22.66 3°2.077 77.2 4.59 79 -999
2008-10-03 08:40:10 51°22.661 3°2.097 77.2 4.59 79 -999
2008-10-03 08:40:20 51°22.663 3°2.118 77.2 4.59 79 -999
2008-10-03 08:40:30 51°22.665 3°2.14 77.2 4.59 79 -999
2008-10-03 08:40:40 51°22.666 3°2.159 77.2 4.59 79 -999
2008-10-03 08:40:50 51°22.668 3°2.18 77.2 4.59 79 -999
2008-10-03 08:41:00 51°22.669 3°2.203 79.7 4.9 88 -999
2008-10-03 08:41:10 51°22.67 3°2.225 79.7 4.9 88 -999
2008-10-03 08:41:20 51°22.67 3°2.244 79.7 4.9 88 -999
2008-10-03 08:41:30 51°22.669 3°2.266 79.7 4.9 88 -999
2008-10-03 08:41:40 51°22.667 3°2.287 79.7 4.9 88 -999
2008-10-03 08:41:50 51°22.665 3°2.309 79.7 4.9 88 -999
2008-10-03 08:42:00 51°22.662 3°2.331 95.5 5 103 -999
2008-10-03 08:42:10 51°22.659 3°2.353 95.5 5 103 -999
2008-10-03 08:42:20 51°22.655 3°2.375 95.5 5 103 -999
2008-10-03 08:42:30 51°22.653 3°2.397 95.5 5 103 -999
2008-10-03 08:42:40 51°22.65 3°2.419 95.5 5 103 -999
2008-10-03 08:42:50 51°22.647 3°2.441 95.5 5 103 -999
2008-10-03 08:43:00 51°22.644 3°2.463 95.5 5.09 102 -999
2008-10-03 08:43:10 51°22.641 3°2.485 95.5 5.09 102 -999
2008-10-03 08:43:20 51°22.639 3°2.507 95.5 5.09 102 -999
2008-10-03 08:43:30 51°22.636 3°2.529 95.5 5.09 102 -999
2008-10-03 08:43:40 51°22.634 3°2.552 95.5 5.09 102 -999
2008-10-03 08:43:50 51°22.632 3°2.573 95.5 5.09 102 -999
2008-10-03 08:44:00 51°22.634 3°2.593 85.9 4.09 79 -999
2008-10-03 08:44:10 51°22.638 3°2.606 85.9 4.09 79 -999
2008-10-03 08:44:20 51°22.645 3°2.617 85.9 4.09 79 -999
2008-10-03 08:44:30 51°22.653 3°2.623 85.9 4.09 79 -999
2008-10-03 08:44:40 51°22.663 3°2.625 85.9 4.09 79 -999
2008-10-03 08:44:50 51°22.673 3°2.622 85.9 4.09 79 -999